Date String (YYYY-MM-DD hh:mm:ss) UTC,Instrument flags,absolute air pressure of the measurement (hPa),sample flow rate (lpm),inlet stack bypass flow (lpm),air temperature of the measurement (°C),ambient temperature measured by the external sensor (°C),aerosol sample conditioner tube jacket temperature (°C),OPC LED temperature (°C),internal box temperature (°C),relative humidity of the measurement (%),span deviation,mass concentration of particles derived from Lorenz-Mie calculation of OPC scattering (μg/m³),mass concentration of particles derived from Lorenz-Mie calculation of OPC scattering (μg/m³),mass concentration of particles derived from Lorenz-Mie calculation of OPC scattering (μg/m³)
DateTimeUTC,F1_M11,P_M11,Q1_M11,Q2_M11,T1_M11,T2_M11,T3_M11,T4_M11,T5_M11,U1_M11,ZSPAN_M11,X0_M11,X2_M11,X1_M11
2024-01-26 01:00:00,SystemResetWarning,0826.6,5.00,000.00,024.9,023.8,000.0,033.2,026.2,13.5,0002.1,0015.26,0007.32,0006.57
2024-01-26 01:01:00,SystemResetWarning,0826.6,5.00,000.00,024.9,023.7,000.0,033.2,026.2,13.5,0002.7,0015.61,0007.35,0006.57
2024-01-26 01:02:00,SystemResetWarning,0826.6,5.00,000.00,024.9,023.7,000.0,033.2,026.2,13.5,0002.6,0014.45,0007.33,0006.56
2024-01-26 01:03:00,SystemResetWarning,0826.6,5.00,000.00,024.8,023.7,000.0,033.2,026.2,13.5,0002.1,0014.29,0007.31,0006.54
2024-01-26 01:04:00,SystemResetWarning,0826.6,5.00,000.00,024.8,023.7,000.0,033.2,026.2,13.5,0002.0,0015.17,0007.35,0006.55
2024-01-26 01:05:00,SystemResetWarning,0826.6,5.00,000.00,024.8,023.7,000.0,033.2,026.1,13.5,0001.9,0015.46,0007.35,0006.53
2024-01-26 01:06:00,SystemResetWarning,0826.6,5.00,000.00,024.8,023.7,000.0,033.2,026.1,13.4,0001.5,0015.98,0007.38,0006.54
2024-01-26 01:07:00,SystemResetWarning,0826.6,5.00,000.00,024.8,023.6,000.0,033.2,026.1,13.4,0001.6,0016.48,0007.36,0006.51
2024-01-26 01:08:00,SystemResetWarning,0826.6,5.00,000.00,024.8,023.7,000.0,033.2,026.1,13.4,0001.6,0016.56,0007.32,0006.50
2024-01-26 01:09:00,SystemResetWarning,0826.6,5.01,000.00,024.8,023.6,000.0,033.2,026.1,13.4,0001.9,0016.25,0007.32,0006.47
2024-01-26 01:10:00,SystemResetWarning,0826.6,5.00,000.00,024.8,023.6,000.0,033.2,026.1,13.4,0002.6,0016.23,0007.38,0006.45
2024-01-26 01:11:00,SystemResetWarning,0826.6,5.00,000.00,024.8,023.6,000.0,033.1,026.1,13.4,0001.7,0016.70,0007.40,0006.43
2024-01-26 01:12:00,SystemResetWarning,0826.6,5.00,000.00,024.8,023.6,000.0,033.1,026.2,13.4,0001.4,0016.48,0007.37,0006.41
2024-01-26 01:13:00,SystemResetWarning,0826.6,5.00,000.00,024.8,023.6,000.0,033.1,026.1,13.4,0001.6,0017.17,0007.44,0006.41
2024-01-26 01:14:00,SystemResetWarning,0826.6,5.00,000.00,024.8,023.6,000.0,033.1,026.1,13.4,0002.3,0017.25,0007.52,0006.43
2024-01-26 01:15:00,SystemResetWarning,0826.6,5.00,000.00,024.7,023.6,000.0,033.1,026.1,13.4,0002.7,0016.78,0007.58,0006.43
2024-01-26 01:16:00,SystemResetWarning,0826.7,5.00,000.00,024.8,023.6,000.0,033.1,026.1,13.4,0002.7,0015.95,0007.59,0006.46
2024-01-26 01:17:00,SystemResetWarning,0826.7,5.00,000.00,024.7,023.6,000.0,033.1,026.1,13.3,0002.6,0015.79,0007.61,0006.45
2024-01-26 01:18:00,SystemResetWarning,0826.7,5.00,000.00,024.7,023.5,000.0,033.1,026.1,13.3,0002.7,0015.52,0007.64,0006.46
2024-01-26 01:19:00,SystemResetWarning,0826.7,4.99,000.00,024.7,023.5,000.0,033.1,026.1,13.3,0002.8,0016.10,0007.65,0006.46
2024-01-26 01:20:00,SystemResetWarning,0826.8,5.00,000.00,024.7,023.5,000.0,033.1,026.0,13.4,0003.1,0016.85,0007.69,0006.47
2024-01-26 01:21:00,SystemResetWarning,0826.8,5.00,000.00,024.7,023.5,000.0,033.1,026.0,13.4,0003.0,0016.81,0007.67,0006.47
2024-01-26 01:22:00,SystemResetWarning,0826.8,5.00,000.00,024.7,023.4,000.0,033.1,026.0,13.5,0003.5,0016.06,0007.64,0006.47
2024-01-26 01:23:00,SystemResetWarning,0826.8,5.00,000.00,024.7,023.4,000.0,033.1,026.0,13.5,0003.7,0015.90,0007.65,0006.47
2024-01-26 01:24:00,SystemResetWarning,0826.8,5.00,000.00,024.7,023.4,000.0,033.0,026.0,13.5,0003.7,0015.89,0007.60,0006.48
2024-01-26 01:25:00,SystemResetWarning,0826.8,5.00,000.00,024.7,023.4,000.0,033.0,026.0,13.5,0004.0,0015.19,0007.55,0006.48
2024-01-26 01:26:00,SystemResetWarning,0826.8,5.00,000.00,024.6,023.4,000.0,033.0,026.0,13.5,0004.1,0014.64,0007.45,0006.47
2024-01-26 01:27:00,SystemResetWarning,0826.8,5.00,000.00,024.6,023.4,000.0,033.0,026.0,13.5,0004.4,0014.80,0007.42,0006.46
2024-01-26 01:28:00,SystemResetWarning,0826.8,5.01,000.00,024.6,023.3,000.0,033.0,026.0,13.5,0004.6,0014.74,0007.36,0006.46
2024-01-26 01:29:00,SystemResetWarning,0826.8,5.01,000.00,024.6,023.3,000.0,033.0,026.0,13.5,0004.7,0015.03,0007.36,0006.46
2024-01-26 01:30:00,SystemResetWarning,0826.8,5.01,000.00,024.6,023.3,000.0,033.0,026.0,13.5,0004.7,0014.33,0007.32,0006.46
2024-01-26 01:31:00,SystemResetWarning,0826.8,5.00,000.00,024.6,023.3,000.0,033.0,025.9,13.5,0004.8,0013.41,0007.25,0006.45
2024-01-26 01:32:00,SystemResetWarning,0826.8,5.00,000.00,024.6,023.3,000.0,033.0,025.9,13.6,0004.8,0013.17,0007.23,0006.46
2024-01-26 01:33:00,SystemResetWarning,0826.8,5.00,000.00,024.6,023.3,000.0,033.0,025.9,13.6,0004.8,0013.27,0007.24,0006.45
2024-01-26 01:34:00,SystemResetWarning,0826.8,4.99,000.00,024.6,023.3,000.0,033.0,025.9,13.6,0005.0,0013.38,0007.20,0006.45
2024-01-26 01:35:00,SystemResetWarning,0826.8,5.00,000.00,024.6,023.3,000.0,033.0,025.9,13.6,0004.9,0012.84,0007.22,0006.45
2024-01-26 01:36:00,SystemResetWarning,0826.8,5.00,000.00,024.6,023.3,000.0,032.9,025.9,13.6,0004.3,0012.94,0007.16,0006.43
2024-01-26 01:37:00,SystemResetWarning,0826.9,5.01,000.00,024.5,023.3,000.0,032.9,025.9,13.6,0003.3,0013.41,0007.20,0006.42
2024-01-26 01:38:00,SystemResetWarning,0826.9,5.01,000.00,024.5,023.3,000.0,032.9,025.9,13.7,0002.9,0013.91,0007.18,0006.41
2024-01-26 01:39:00,SystemResetWarning,0826.9,5.01,000.00,024.5,023.2,000.0,032.9,025.9,13.7,0002.5,0013.85,0007.15,0006.40
2024-01-26 01:40:00,SystemResetWarning,0826.9,4.99,000.00,024.5,023.2,000.0,032.9,025.9,13.7,0002.4,0013.44,0007.13,0006.37
2024-01-26 01:41:00,SystemResetWarning,0826.9,4.99,000.00,024.5,023.2,000.0,032.9,025.9,13.7,0002.5,0013.36,0007.11,0006.37
2024-01-26 01:42:00,SystemResetWarning,0826.9,4.99,000.00,024.5,023.2,000.0,032.9,025.8,13.8,0002.8,0013.89,0007.09,0006.37
2024-01-26 01:43:00,SystemResetWarning,0826.9,4.99,000.00,024.5,023.2,000.0,032.9,025.8,13.8,0002.5,0013.91,0007.08,0006.35
2024-01-26 01:44:00,SystemResetWarning,0826.9,5.00,000.00,024.5,023.2,000.0,032.9,025.9,13.8,0002.5,0014.26,0007.02,0006.34
2024-01-26 01:45:00,SystemResetWarning,0826.9,5.01,000.00,024.5,023.2,000.0,032.9,025.8,13.8,0002.1,0014.42,0006.98,0006.32
2024-01-26 01:46:00,SystemResetWarning,0826.9,5.01,000.00,024.5,023.2,000.0,032.9,025.8,13.8,0002.4,0014.28,0006.92,0006.30
2024-01-26 01:47:00,SystemResetWarning,0826.9,5.01,000.00,024.4,023.1,000.0,032.8,025.8,13.8,0002.4,0013.88,0006.93,0006.30
2024-01-26 01:48:00,SystemResetWarning,0826.9,5.00,000.00,024.4,023.1,000.0,032.8,025.8,13.8,0003.3,0013.59,0006.88,0006.30
2024-01-26 01:49:00,SystemResetWarning,0826.9,5.00,000.00,024.4,023.2,000.0,032.8,025.8,13.8,0003.6,0013.02,0006.86,0006.30
2024-01-26 01:50:00,SystemResetWarning,0826.9,5.00,000.00,024.4,023.2,000.0,032.8,025.8,13.8,0004.0,0013.08,0006.89,0006.31
2024-01-26 01:51:00,SystemResetWarning,0826.9,5.00,000.00,024.4,023.1,000.0,032.8,025.8,13.8,0004.4,0013.19,0006.92,0006.32
2024-01-26 01:52:00,SystemResetWarning,0826.9,4.99,000.00,024.4,023.1,000.0,032.8,025.7,13.8,0004.5,0013.52,0006.90,0006.33
2024-01-26 01:53:00,SystemResetWarning,0826.9,5.00,000.00,024.4,023.1,000.0,032.8,025.7,13.8,0004.6,0013.42,0006.91,0006.34
2024-01-26 01:54:00,SystemResetWarning,0827.0,5.00,000.00,024.4,023.1,000.0,032.8,025.7,13.7,0004.8,0013.54,0006.91,0006.36
2024-01-26 01:55:00,SystemResetWarning,0826.9,5.00,000.00,024.4,023.1,000.0,032.8,025.7,13.7,0005.1,0013.13,0006.93,0006.38
2024-01-26 01:56:00,SystemResetWarning,0826.9,5.00,000.00,024.4,023.1,000.0,032.8,025.7,13.7,0005.3,0013.00,0006.98,0006.40
2024-01-26 01:57:00,SystemResetWarning,0826.9,5.00,000.00,024.4,023.1,000.0,032.8,025.7,13.7,0005.3,0013.11,0007.00,0006.42
2024-01-26 01:58:00,SystemResetWarning,0827.0,5.00,000.00,024.4,023.1,000.0,032.8,025.6,13.7,0005.6,0013.21,0006.99,0006.43
2024-01-26 01:59:00,SystemResetWarning,0826.9,5.00,000.00,024.4,023.1,000.0,032.8,025.6,13.8,0005.6,0013.28,0006.99,0006.43
